This demonstration page uses our WeatherBlox Daily Observations layout. Learn more.

Left ArrowRight Arrow

53.62937, 11.41316

Hourly Observations for December 15, 2019

Temp ( °F °C ) Dew Point ( °F °C ) Humidity (%) Winds ( mph kmh ) Pressure ( in mb ) Visibility ( mi km ) Precip ( " mm )
6:50 am 06:50 Mostly Clear 37 3 32 0 81 81 SSE 9 15 29.27 991 7 11 N/A
7:20 am 07:20 Mostly Clear 37 3 34 1 87 87 SSE 10 17 29.27 991 7 11 N/A
7:50 am 07:50 Mostly Cloudy with Light Rain 37 3 34 1 87 87 SSE 12 19 29.24 990 30 48 N/A
8:20 am 08:20 Mostly Cloudy with Rain 37 3 36 2 93 93 S 13 20 29.24 990 5 8 N/A
8:50 am 08:50 Mostly Cloudy 39 4 36 2 87 87 S 9 15 29.24 990 30 48 N/A
9:20 am 09:20 Mostly Cloudy 39 4 37 3 93 93 S 9 15 29.24 990 30 48 N/A
9:50 am 09:50 Mostly Cloudy with Showers Nearby 41 5 39 4 93 93 SSW 10 17 29.24 990 30 48 N/A
10:20 am 10:20 Mostly Cloudy 43 6 41 5 93 93 SSW 15 24 29.24 990 30 48 N/A
10:50 am 10:50 Partly Cloudy 46 8 41 5 82 82 SW 15 24 29.24 990 30 48 N/A
11:20 am 11:20 Partly Cloudy 46 8 39 4 76 76 SW 20 31 29.27 991 30 48 N/A
11:50 am 11:50 Mostly Sunny 48 9 36 2 62 62 WSW 25 41 29.27 991 30 48 N/A
12:20 pm 12:20 Mostly Sunny 48 9 34 1 58 58 WSW 28 44 29.27 991 30 48 N/A
12:50 pm 12:50 Mostly Sunny 48 9 32 0 54 54 WSW 26 43 29.30 992 30 48 N/A
1:20 pm 13:20 Mostly Sunny 48 9 30 -1 50 50 WSW 26 43 29.32 993 30 48 N/A
1:50 pm 13:50 Mostly Sunny 48 9 30 -1 50 50 WSW 26 43 29.32 993 7 11 N/A
2:20 pm 14:20 Partly Cloudy 46 8 32 0 57 57 WSW 24 39 29.32 993 30 48 N/A
2:50 pm 14:50 Partly Cloudy 46 8 32 0 57 57 WSW 28 44 29.35 994 30 48 N/A
3:20 pm 15:20 Partly Cloudy 46 8 32 0 57 57 WSW 22 35 29.38 995 30 48 N/A
3:50 pm 15:50 Partly Cloudy 46 8 32 0 57 57 WSW 24 39 29.38 995 30 48 N/A
4:20 pm 16:20 Partly Cloudy 46 8 34 1 62 62 WSW 22 35 29.41 996 30 48 N/A
4:50 pm 16:50 Partly Cloudy 46 8 34 1 62 62 WSW 22 35 29.44 997 30 48 N/A
5:20 pm 17:20 Partly Cloudy 45 7 36 2 71 71 WSW 22 35 29.44 997 30 48 N/A
5:50 pm 17:50 Partly Cloudy 46 8 36 2 66 66 WSW 18 30 29.47 998 30 48 N/A
6:20 pm 18:20 Partly Cloudy 46 8 36 2 66 66 WSW 18 30 29.47 998 30 48 N/A
6:50 pm 18:50 Partly Cloudy 45 7 36 2 71 71 WSW 16 26 29.50 999 30 48 N/A
7:20 pm 19:20 Mostly Cloudy 46 8 37 3 71 71 WSW 21 33 29.53 1000 30 48 N/A
7:50 pm 19:50 Partly Cloudy 45 7 37 3 76 76 WSW 18 30 29.53 1000 30 48 N/A

Powered by AerisWeather